Find KUIPER-00420

NORAD ID: 68932 Int'l Des: 2026-098P Owner: KUIP Country: US Constellation: amazon-leo operational
LEOCIRCULAR

Current View

Loading 3D Globe...

About KUIPER-00420

KUIPER-00420 (NORAD 68932) is a amazon-leo constellation satellite launched Apr 30, 2026 by KUIP of US. It operates in LEO, CIRCULAR orbit with a mass of 490.00 kg.

About KUIPER-00420

Description loading...

Upcoming Passes

Passes for default location (London). Set your location on the main map for personalized predictions.

Altitude History

Loading altitude history...

Two-Line Element Set

1 68932U 26098P 26170.16173248 .00033137 00000-0 94124-3 0 9991
2 68932 51.8783 58.0023 0003515 180.7095 179.3887 15.35877611 7659
Epoch: Jun 19, 2026 • Age: 24 hours

Current Status

Altitude 460.4 km
Velocity 7.64 km/s
Sub-Earth Point -17.19°S, 84.01°W
Launch Date Apr 30, 2026
Age 0.1 years
Type internet

Technical Details

Classification Payload
Mass 490.00 kg
Dry Mass 490.00 kg
Total Mass 490.00 kg
Length 1.80 m
Diameter 0.70 m
Span 5.00 m
Shape Box + 2 pan
Manufacturer KUIP
Bus Type Kuiper
Phase Status In Orbit
Owner/State KUIP/US

Most Searched